Location: Équennes
(49.7375°N, 1.9622°E)
Time: 19:11:53
(UTC+00:00)

Cosmos 2278 - Pass Details

Date: 30 September 2023
Orbit: 838 x 853 km, 71.1° (Epoch: 08 December)

Event Time Altitude Azimuth Distance (km) Brightness Sun altitude
Rises 00:46:28 0° 333° (NNW) 3,428 7.3 -41.0°
Reaches altitude 10° 00:49:02 10° 340° (NNW) 2,490 6.5 -40.8°
Enters shadow 00:50:24 17° 346° (NNW) 2,022 6.0 -40.7°
